Погода в Теньковке

Россия / Ульяновская область     54°20′57″N   47°18′28″E
темп.,
°C
ветер,
м/с
пор.,
м/с
влажн.,
%
обл.,
%
осадки,
мм/ч
давл.,
гПа
погр.,
м
6 марта, сб
сб601:00−10зюз489561 0.0 1011189
04:00−12з479654 0.0 1013131
07:00−14зсз359749 0.0 101494
10:00−12зсз259469 0.1 1016213
13:00−9зсз23781 0.0 1016335
16:00−7з237740 0.0 1015489
19:00−13зюз118467 0.0 101521
22:00−15зюз119133 0.0 101520
7 марта, вс
вс701:00−15юз229547 0.0 101420
04:00−16зюз229863 0.0 101320
07:00−16юз229885 0.0 101320
10:00−12зюз369585 0.1 1013253
13:00−7зюз588695 0.0 1011785
16:00−6юз698198 0.1 1008978
19:00−7ююз71487100 0.0 1006739
22:00−7ююз81592100 0.1 1002874
8 марта, пн
пн801:00−5ююз91693100 0.6 9971015
04:00−8зюз8168890 1.6 997759
07:00−10юз6158786 0.0 998447
10:00−7юз8167655 0.0 999719
13:00−5юз8137530 0.0 9981102
16:00−4зюз6117764 0.3 9971447
19:00−9зюз6158558 0.1 998466
22:00−8з6129362 0.1 1001444
9 марта, вт
вт901:00−11зюз5129360 0.0 1002312
04:00−12зюз5119473 0.1 1004327
07:00−11з5129495 0.2 1006361
10:00−10зсз699296 0.3 1008588
13:00−9зсз6888100 0.1 1010739
16:00−10зсз6887100 0.2 1011818
19:00−12зсз3796100 0.1 1012212
22:00−14зсз239796 0.3 101455
10 марта, ср
ср1001:00−16зсз489892 0.1 1014183
04:00−19зсз379992 0.1 1015140
07:00−22зсз3610098 0.1 1016127
10:00−20зсз479899 0.1 1017269
13:00−17зсз4693100 0.0 1017417
16:00−16зсз4689100 0.0 1017516
19:00−20зсз239881 0.0 101720
22:00−23сз1210074 0.0 101920